Regional Weather Roundup
Issued by NWS

Home | Current Version | Previous Version | Graphics & Text | Print | Product List | Glossary On
Versions: 1 2 3 4 5 6 7 8 9 10 11 12 13 14 15 16 17 18 19 20 21 22 23 24 25 26 27 28 29 30 31 32 33 34 35 36 37 38 39 40 41 42 43 44 45 46 47 48 49
000
ASUS45 KCYS 241810
RWRWY

WYOMING REGIONAL WEATHER ROUNDUP
NATIONAL WEATHER SERVICE CHEYENNE WY
1100 AM MST WED DEC 24 2014

NOTE:  "FAIR" INDICATES FEW OR NO CLOUDS BELOW 12,000 FEET
WITH NO SIGNIFICANT WEATHER AND/OR OBSTRUCTIONS TO VISIBILITY.

WYZ001-241900-
YELLOWSTONE NATIONAL PARK

CITY           SKY/WX    TMP DP  RH WIND       PRES   REMARKS
LK YELLOWSTONE   N/A     22  16  78 VRB3      29.84F
6HR MIN TEMP:  13; 6HR MAX TEMP:  22;

W YELLOWSTONE  NOT AVBL

$$
WYZ002>013-054>058-071-098>099-241900-
NORTHERN WYOMING

CITY           SKY/WX    TMP DP  RH WIND       PRES   REMARKS
JACKSON        PTSUNNY   21  18  86 CALM      29.89F
CODY           FAIR      41  19  42 SW9G18    29.68F
GREYBULL       FAIR      21  15  78 SE3       29.76F
6HR MIN TEMP:  15; 6HR MAX TEMP:  21;

WORLAND        FAIR      15  10  80 S6        29.75F WCI   6
6HR MIN TEMP:   5; 6HR MAX TEMP:  15;

SHERIDAN       FAIR      30  22  72 CALM      29.60F
6HR MIN TEMP:  20; 6HR MAX TEMP:  32;

BUFFALO        FAIR      35  21  56 S3        29.62F
6HR MIN TEMP:  26; 6HR MAX TEMP:  40;

GILLETTE       FAIR      40  21  46 SW18      29.61F WCI  31
6HR MIN TEMP:  30; 6HR MAX TEMP:  42;

HULETT           N/A    N/A N/A N/A MISG        N/A
NEWCASTLE      FAIR      32  25  74 MISG      29.70F

$$
WYZ014>020-022>026-101>103-241900-
CENTRAL WYOMING

CITY           SKY/WX    TMP DP  RH WIND       PRES   REMARKS
BIG PINEY      CLOUDY    23  13  65 CALM      29.93F
6HR MIN TEMP:   1; 6HR MAX TEMP:  23;

PINEDALE       CLOUDY    21  16  79 NW5       29.93F WCI  15
DUBOIS         NOT AVBL
LANDER         FAIR      19  10  68 CALM      29.77F
6HR MIN TEMP:  11; 6HR MAX TEMP:  21;

RIVERTON       FAIR      17  10  74 SW5       29.78F WCI  10
6HR MIN TEMP:  13; 6HR MAX TEMP:  18;

CASPER         FAIR      30  16  56 SW33G41   29.77S WCI  14
6HR MIN TEMP:  22; 6HR MAX TEMP:  30;

DOUGLAS        FAIR      43  19  38 W12G18    29.71F
6HR MIN TEMP:  15; 6HR MAX TEMP:  43;


$$
WYZ021-027>030-104>119-241900-
SOUTHERN WYOMING

CITY           SKY/WX    TMP DP  RH WIND       PRES   REMARKS
EVANSTON       FAIR      26  14  60 SW14      29.96F WCI  14
6HR MIN TEMP:  15; 6HR MAX TEMP:  27;

KEMMERER       FAIR      28  14  54 SW5       29.95F WCI  23
FORT BRIDGER   FAIR      36  24  60 W7        29.98F WCI  31
ROCK SPRINGS   CLOUDY    30  22  72 SW17      29.96F WCI  18
6HR MIN TEMP:  20; 6HR MAX TEMP:  30;

DIXON          FAIR      17   8  69 W3        30.07R
RAWLINS        CLOUDY    27  16  63 SW16G26   29.94S WCI  15
6HR MIN TEMP:  19; 6HR MAX TEMP:  28;

SARATOGA       FAIR      28  14  54 SE10      29.95S WCI  19
LARAMIE        FAIR      27  13  55 SW23G32   29.79F WCI  12
6HR MIN TEMP:   8; 6HR MAX TEMP:  27;

CHEYENNE       FAIR      38  18  44 W28G40    29.73F WCI  26
6HR MIN TEMP:  20; 6HR MAX TEMP:  38;

TORRINGTON     FAIR      44  17  33 W20G30    29.71F
6HR MIN TEMP:   9; 6HR MAX TEMP:  45;

PINE BLUFFS    FAIR      41  19  42 W14       29.76F

$$


USA.gov is the U.S. government's official web portal to all federal, state and local government web resources and services.